This demonstration page uses our WeatherBlox Daily Observations layout. Learn more.

Hourly Observations for August 10, 2018

Temp ( °F °C ) Dew Point ( °F °C ) Humidity (%) Winds ( mph kmh ) Pressure ( in mb ) Visibility ( mi km ) Precip ( " mm )
12:15 am 00:15 Clear 70 21.3 69 20.5 95 95 NE 8 13 30.03 1017 10 16.09344 0 0
12:35 am 00:35 Clear 69 20.8 68 20.2 96 96 NE 6 9 30.03 1017 10 16.09344 0 0
12:55 am 00:55 Clear 68 20.1 67 19.7 98 98 NE 3 6 30.06 1018 10 16.09344 0 0
1:15 am 01:15 Clear 67 19.7 67 19.5 99 99 NE 3 6 30.06 1018 10 16.09344 0 0
1:35 am 01:35 Clear 67 19.3 67 19.2 99 99 Calm 30.06 1018 7 11.265408 0 0
1:55 am 01:55 Clear 67 19.6 67 19.5 99 99 Calm 30.06 1018 7 11.265408 0 0
2:15 am 02:15 Clear 67 19.2 67 19.2 100 100 NNE 5 7 30.06 1018 7 11.265408 0 0
2:35 am 02:35 Clear with Mist and Fog 65 18.4 65 18.4 100 100 NE 3 6 30.06 1018 5 8.04672 0 0
2:55 am 02:55 Clear 65 18.5 65 18.5 100 100 NE 7 11 30.06 1018 7 11.265408 0 0
3:15 am 03:15 Clear 66 19 66 19 100 100 NNE 6 9 30.06 1018 7 11.265408 0 0
3:35 am 03:35 Clear 66 19 66 19 100 100 NNE 3 6 30.06 1018 7 11.265408 0 0
3:55 am 03:55 Clear 66 18.7 65 18.6 99 99 NNE 3 6 30.06 1018 7 11.265408 0 0
4:15 am 04:15 Clear 66 18.8 66 18.7 99 99 NNE 3 6 30.06 1018 7 11.265408 0 0
4:35 am 04:35 Clear 65 18.5 65 18.5 100 100 N 3 6 30.06 1018 7 11.265408 0 0
4:55 am 04:55 Clear 65 18.5 65 18.5 100 100 NNE 3 6 30.06 1018 7 11.265408 0 0
5:15 am 05:15 Clear 65 18.3 65 18.3 100 100 Calm 30.06 1018 7 11.265408 0 0
5:35 am 05:35 Partly Cloudy 66 18.7 66 18.7 100 100 Calm 30.06 1018 7 11.265408 0 0
5:55 am 05:55 Mostly Cloudy 65 18.5 65 18.5 100 100 WNW 3 6 30.06 1018 7 11.265408 0 0
6:15 am 06:15 Partly Cloudy 65 18.3 65 18.3 100 100 NNW 3 6 30.06 1018 7 11.265408 0 0
6:35 am 06:35 Clear 64 18 64 18 100 100 Calm 30.06 1018 7 11.265408 0 0
6:55 am 06:55 Sunny with Mist and Fog 64 17.7 64 17.7 100 100 Calm 30.06 1018 5 8.04672 0 0
7:15 am 07:15 Sunny with Mist and Fog 64 17.7 64 17.7 100 100 N 3 6 30.06 1018 4 6.437376 0 0
7:35 am 07:35 Sunny with Mist and Fog 64 17.6 64 17.6 100 100 N 3 6 30.06 1018 4 6.437376 0 0
7:55 am 07:55 Sunny with Mist and Fog 65 18.5 65 18.5 100 100 Calm 30.06 1018 5 8.04672 0 0
8:15 am 08:15 Sunny with Mist and Fog 67 19.2 66 18.7 97 97 Calm 30.06 1018 5 8.04672 0 0
8:35 am 08:35 Sunny with Mist and Fog 68 19.9 66 19.1 95 95 Calm 30.06 1018 5 8.04672 0 0
8:55 am 08:55 Sunny with Mist and Fog 69 20.5 67 19.4 93 93 Calm 30.06 1018 5 8.04672 0 0
9:15 am 09:15 Sunny 70 21.2 67 19.6 91 91 Calm 30.03 1017 7 11.265408 0 0
9:35 am 09:35 Sunny 71 21.9 68 20.2 90 90 NE 3 6 30.03 1017 7 11.265408 0 0
9:55 am 09:55 Sunny 73 22.5 67 19.6 84 84 Calm 30.03 1017 7 11.265408 0 0
10:15 am 10:15 Sunny 73 23 68 19.9 83 83 Calm 30.03 1017 7 11.265408 0 0
10:35 am 10:35 Sunny 75 23.7 68 20 80 80 ESE 5 7 30.03 1017 7 11.265408 0 0
10:55 am 10:55 Sunny 76 24.4 69 20.3 78 78 ENE 6 9 30 1016 7 11.265408 0 0
11:15 am 11:15 Sunny 77 24.8 68 19.9 74 74 E 5 7 30 1016 10 16.09344 0 0
11:35 am 11:35 Sunny 77 25.2 67 19.4 70 70 ENE 7 11 30 1016 10 16.09344 0 0
11:55 am 11:55 Sunny 78 25.6 68 20.1 72 72 E 3 6 30 1016 10 16.09344 0 0
12:15 pm 12:15 Sunny 79 26.2 68 19.9 68 68 ENE 5 7 30 1016 10 16.09344 0 0
12:35 pm 12:35 Sunny 80 26.5 67 19.2 64 64 E 6 9 30 1016 10 16.09344 0 0
12:55 pm 12:55 Sunny 80 26.7 64 17.5 57 57 E 6 9 30 1016 10 16.09344 0 0
1:15 pm 13:15 Sunny 81 27 66 18.8 61 61 NE 6 9 30 1016 10 16.09344 0 0
1:35 pm 13:35 Sunny 82 27.5 63 17.4 54 54 ESE 6 9 30 1016 10 16.09344 0 0
1:55 pm 13:55 Sunny 82 27.5 62 16.6 51 51 E 6 9 30 1016 10 16.09344 0 0
2:15 pm 14:15 Sunny 82 27.7 65 18.4 57 57 E 3 6 30 1016 10 16.09344 0 0
2:35 pm 14:35 Sunny 82 27.8 64 17.7 54 54 SE 6 9 30 1016 10 16.09344 0 0
2:55 pm 14:55 Sunny 83 28.1 62 16.9 51 51 E 6 9 29.97 1015 10 16.09344 0 0
3:15 pm 15:15 Sunny 82 28 63 17.1 52 52 E 7 11 30 1016 10 16.09344 0 0
3:35 pm 15:35 Sunny 83 28.3 61 16.2 48 48 E 5 7 29.97 1015 10 16.09344 0 0
3:55 pm 15:55 Sunny 83 28.2 65 18.4 55 55 E 6 9 29.97 1015 10 16.09344 0 0
4:15 pm 16:15 Sunny 83 28.2 64 18 54 54 ESE 6 9 29.97 1015 10 16.09344 0 0
4:35 pm 16:35 Sunny 83 28.5 60 15.5 45 45 E 3 6 29.97 1015 10 16.09344 0 0
4:55 pm 16:55 Sunny 83 28.4 63 17.2 51 51 ESE 5 7 29.97 1015 10 16.09344 0 0
5:15 pm 17:15 Sunny 83 28.1 64 18 54 54 ESE 3 6 29.94 1014 10 16.09344 0 0
5:35 pm 17:35 Sunny 83 28.1 64 17.7 53 53 E 5 7 29.94 1014 10 16.09344 0 0
5:55 pm 17:55 Sunny 82 28 64 18 55 55 E 5 7 29.94 1014 10 16.09344 0 0
6:15 pm 18:15 Sunny 82 28 66 19.1 58 58 ESE 5 7 29.94 1014 10 16.09344 0 0
6:35 pm 18:35 Sunny 82 27.6 66 19.1 60 60 ESE 5 7 29.97 1015 10 16.09344 0 0
6:55 pm 18:55 Sunny 81 27.2 68 19.9 64 64 ESE 5 7 29.97 1015 10 16.09344 0 0
7:15 pm 19:15 Sunny 80 26.9 69 20.3 67 67 SE 5 7 29.97 1015 10 16.09344 0 0
7:35 pm 19:35 Sunny 80 26.5 70 20.9 71 71 Calm 29.97 1015 7 11.265408 0 0
7:55 pm 19:55 Sunny 79 26 69 20.5 72 72 SSE 3 6 29.97 1015 10 16.09344 0 0
8:15 pm 20:15 Sunny 77 25.1 70 21 78 78 SSE 3 6 29.97 1015 10 16.09344 0 0
8:35 pm 20:35 Sunny 76 24.5 69 20.3 78 78 SSE 5 7 29.97 1015 10 16.09344 0 0
8:55 pm 20:55 Clear 74 23.5 68 20.1 81 81 SSE 3 6 30 1016 10 16.09344 0 0
9:15 pm 21:15 Clear 73 23 67 19.6 81 81 Calm 30 1016 10 16.09344 0 0
9:35 pm 21:35 Clear 71 21.7 67 19.5 87 87 Calm 30.03 1017 10 16.09344 0 0
9:55 pm 21:55 Clear 71 21.4 68 20 92 92 Calm 30.03 1017 10 16.09344 0 0
10:15 pm 22:15 Clear 71 21.9 68 19.8 88 88 S 3 6 30.03 1017 10 16.09344 0 0
10:35 pm 22:35 Clear 71 21.6 67 19.2 86 86 S 3 6 30.03 1017 10 16.09344 0 0
10:55 pm 22:55 Clear 70 21.3 65 18.3 83 83 S 5 7 30.03 1017 10 16.09344 0 0
11:15 pm 23:15 Clear 69 20.6 65 18.1 86 86 S 3 6 30.06 1018 10 16.09344 0 0
11:35 pm 23:35 Clear 69 20.5 64 17.9 85 85 S 3 6 30.06 1018 10 16.09344 0 0
11:55 pm 23:55 Clear 68 20.2 64 17.6 85 85 S 3 6 30.06 1018 10 16.09344 0 0

Powered by AerisWeather